Time,TemperatureF,DewpointF,PressureIn,WindDirection,WindDirectionDegrees,WindSpeedMPH,WindSpeedGustMPH,Humidity,HourlyPrecipIn,Conditions,Clouds,dailyrainin,SoftwareType,DateUTC
2013-03-20 00:00:00,51.7,11.9,30.01,SW,229,2.3,2.3,20,0.00,RA,,0.00,WeatherDisplay:10.37,2013-03-20 04:00:00,
2013-03-20 00:05:00,51.4,11.6,30.00,NNW,336,3.5,3.5,20,0.00,RA,,0.00,WeatherDisplay:10.37,2013-03-20 04:05:00,
2013-03-20 00:10:00,51.3,11.5,30.00,East,94,2.3,2.3,20,0.00,CLR,,0.00,WeatherDisplay:10.37,2013-03-20 04:10:00,
2013-03-20 00:15:00,51.1,11.4,30.00,NW,309,3.5,3.5,20,0.00,CLR,,0.00,WeatherDisplay:10.37,2013-03-20 04:15:00,
2013-03-20 00:20:00,50.7,11.0,30.00,NW,305,1.1,1.1,20,0.00,CLR,,0.00,WeatherDisplay:10.37,2013-03-20 04:20:00,
2013-03-20 00:25:00,50.6,12.0,30.00,SSW,204,1.1,1.1,21,0.00,CLR,,0.00,WeatherDisplay:10.37,2013-03-20 04:25:00,
2013-03-20 00:30:00,50.1,12.7,30.00,East,83,2.0,2.0,22,0.00,CLR,,0.00,WeatherDisplay:10.37,2013-03-20 04:30:00,
2013-03-20 00:35:00,49.8,12.4,30.00,WSW,243,2.3,2.3,22,0.00,CLR,,0.00,WeatherDisplay:10.37,2013-03-20 04:35:00,
2013-03-20 00:40:00,49.8,13.4,30.00,WNW,300,3.5,3.5,23,0.00,CLR,,0.00,WeatherDisplay:10.37,2013-03-20 04:40:00,
2013-03-20 00:45:00,49.7,12.3,30.00,WNW,285,1.1,0.0,22,0.00,CLR,,0.00,WeatherDisplay:10.37,2013-03-20 04:45:00,
2013-03-20 00:50:00,49.6,12.2,30.00,SW,215,2.3,2.3,22,0.00,CLR,,0.00,WeatherDisplay:10.37,2013-03-20 04:50:00,
2013-03-20 00:55:00,49.5,13.2,30.01,WSW,251,1.1,0.0,23,0.00,CLR,,0.00,WeatherDisplay:10.37,2013-03-20 04:55:00,
2013-03-20 01:00:00,49.3,13.0,30.01,North,356,1.1,1.1,23,0.00,CLR,,0.00,WeatherDisplay:10.37,2013-03-20 05:00:00,
2013-03-20 01:05:00,49.0,13.7,30.01,NE,41,0.0,0.0,24,0.00,CLR,,0.00,WeatherDisplay:10.37,2013-03-20 05:05:00,
2013-03-20 01:10:00,48.5,13.3,30.01,NE,41,1.1,1.1,24,0.00,CLR,,0.00,WeatherDisplay:10.37,2013-03-20 05:10:00,
2013-03-20 01:15:00,48.1,13.9,30.00,SW,218,1.1,1.1,25,0.00,CLR,,0.00,WeatherDisplay:10.37,2013-03-20 05:15:00,
2013-03-20 01:20:00,48.1,13.9,30.01,NNW,335,0.0,0.0,25,0.00,CLR,,0.00,WeatherDisplay:10.37,2013-03-20 05:20:00,
2013-03-20 01:25:00,47.9,14.6,30.01,NNW,338,0.0,0.0,26,0.00,CLR,,0.00,WeatherDisplay:10.37,2013-03-20 05:25:00,
2013-03-20 01:30:00,47.5,15.1,30.01,NNW,337,0.0,0.0,27,0.00,CLR,,0.00,WeatherDisplay:10.37,2013-03-20 05:30:00,
2013-03-20 01:35:00,47.3,15.0,30.01,SW,227,0.0,0.0,27,0.00,CLR,,0.00,WeatherDisplay:10.37,2013-03-20 05:35:00,
2013-03-20 01:40:00,47.1,15.6,30.01,WSW,253,2.3,2.3,28,0.00,CLR,,0.00,WeatherDisplay:10.37,2013-03-20 05:40:00,
2013-03-20 01:45:00,46.9,16.3,30.01,North,352,1.1,1.1,29,0.00,CLR,,0.00,WeatherDisplay:10.37,2013-03-20 05:45:00,
2013-03-20 01:50:00,46.9,14.6,30.01,WSW,253,2.3,2.3,27,0.00,CLR,,0.00,WeatherDisplay:10.37,2013-03-20 05:50:00,
2013-03-20 01:56:00,47.1,13.9,30.01,NNW,343,2.3,2.3,26,0.00,CLR,,0.00,WeatherDisplay:10.37,2013-03-20 05:56:00,
2013-03-20 02:01:00,47.2,13.1,30.01,WNW,300,1.1,1.1,25,0.00,CLR,,0.00,WeatherDisplay:10.37,2013-03-20 06:01:00,
2013-03-20 02:06:00,47.2,13.1,30.01,East,98,4.0,4.0,25,0.00,CLR,,0.00,WeatherDisplay:10.37,2013-03-20 06:06:00,
2013-03-20 02:11:00,47.2,13.1,30.02,NNW,328,2.3,2.3,25,0.00,CLR,,0.00,WeatherDisplay:10.37,2013-03-20 06:11:00,
2013-03-20 02:16:00,47.2,14.0,30.02,WSW,239,1.1,0.0,26,0.00,CLR,,0.00,WeatherDisplay:10.37,2013-03-20 06:16:00,
2013-03-20 02:21:00,47.0,13.8,30.01,West,278,1.1,0.0,26,0.00,CLR,,0.00,WeatherDisplay:10.37,2013-03-20 06:21:00,
2013-03-20 02:26:00,46.8,13.7,30.01,West,280,0.0,0.0,26,0.00,CLR,,0.00,WeatherDisplay:10.37,2013-03-20 06:26:00,
2013-03-20 02:31:00,46.7,12.7,30.02,WSW,249,1.1,1.1,25,0.00,CLR,,0.00,WeatherDisplay:10.37,2013-03-20 06:31:00,
2013-03-20 02:36:00,46.6,10.7,30.02,NNW,343,2.3,2.3,23,0.00,CLR,,0.00,WeatherDisplay:10.37,2013-03-20 06:36:00,
2013-03-20 02:41:00,46.8,11.8,30.02,NNW,338,3.5,3.5,24,0.00,CLR,,0.00,WeatherDisplay:10.37,2013-03-20 06:41:00,
2013-03-20 02:46:00,46.7,11.8,30.02,NW,307,1.1,0.0,24,0.00,CLR,,0.00,WeatherDisplay:10.37,2013-03-20 06:46:00,
2013-03-20 02:51:00,46.6,11.7,30.02,NW,312,2.3,2.3,24,0.00,CLR,,0.00,WeatherDisplay:10.37,2013-03-20 06:51:00,
2013-03-20 02:56:00,46.6,11.7,30.02,NNW,341,0.0,0.0,24,0.00,CLR,,0.00,WeatherDisplay:10.37,2013-03-20 06:56:00,
2013-03-20 03:01:00,46.4,11.5,30.02,WNW,289,0.0,0.0,24,0.00,CLR,,0.00,WeatherDisplay:10.37,2013-03-20 07:01:00,
2013-03-20 03:07:00,46.1,12.2,30.02,NNW,333,0.0,0.0,25,0.00,CLR,,0.00,WeatherDisplay:10.37,2013-03-20 07:07:00,
2013-03-20 03:12:00,45.5,13.4,30.01,NNW,333,1.1,0.0,27,0.00,CLR,,0.00,WeatherDisplay:10.37,2013-03-20 07:12:00,
2013-03-20 03:17:00,45.0,13.0,30.02,WNW,287,0.0,0.0,27,0.00,CLR,,0.00,WeatherDisplay:10.37,2013-03-20 07:17:00,
2013-03-20 03:22:00,44.6,13.5,30.02,WNW,284,0.0,0.0,28,0.00,CLR,,0.00,WeatherDisplay:10.37,2013-03-20 07:22:00,
2013-03-20 03:27:00,44.2,14.7,30.01,West,281,0.0,0.0,30,0.00,CLR,,0.00,WeatherDisplay:10.37,2013-03-20 07:27:00,
2013-03-20 03:33:00,43.6,14.2,30.01,West,281,0.0,0.0,30,0.00,CLR,,0.00,WeatherDisplay:10.37,2013-03-20 07:33:00,
2013-03-20 03:38:00,42.8,14.2,30.01,WNW,283,0.0,0.0,31,0.00,CLR,,0.00,WeatherDisplay:10.37,2013-03-20 07:38:00,
2013-03-20 03:43:00,42.2,12.9,30.01,WNW,283,0.0,0.0,30,0.00,CLR,,0.00,WeatherDisplay:10.37,2013-03-20 07:43:00,
2013-03-20 03:48:00,41.9,14.8,30.01,WNW,282,0.0,0.0,33,0.00,CLR,,0.00,WeatherDisplay:10.37,2013-03-20 07:48:00,
2013-03-20 03:53:00,41.5,15.8,30.01,WNW,283,0.0,0.0,35,0.00,CLR,,0.00,WeatherDisplay:10.37,2013-03-20 07:53:00,
2013-03-20 03:58:00,41.0,15.4,30.01,WNW,283,0.0,0.0,35,0.00,CLR,,0.00,WeatherDisplay:10.37,2013-03-20 07:58:00,
2013-03-20 04:03:00,40.7,14.5,30.01,WNW,283,0.0,0.0,34,0.00,CLR,,0.00,WeatherDisplay:10.37,2013-03-20 08:03:00,
2013-03-20 04:08:00,40.4,15.5,30.01,WNW,282,0.0,0.0,36,0.00,CLR,,0.00,WeatherDisplay:10.37,2013-03-20 08:08:00,
2013-03-20 04:13:00,40.1,14.6,30.01,WNW,283,0.0,0.0,35,0.00,CLR,,0.00,WeatherDisplay:10.37,2013-03-20 08:13:00,
2013-03-20 04:18:00,39.8,15.0,30.01,WNW,283,0.0,0.0,36,0.00,CLR,,0.00,WeatherDisplay:10.37,2013-03-20 08:18:00,
2013-03-20 04:23:00,39.6,15.4,30.02,WNW,283,0.0,0.0,37,0.00,CLR,,0.00,WeatherDisplay:10.37,2013-03-20 08:23:00,
2013-03-20 04:28:00,39.4,14.6,30.02,WNW,283,0.0,0.0,36,0.00,CLR,,0.00,WeatherDisplay:10.37,2013-03-20 08:28:00,
2013-03-20 04:33:00,39.2,15.1,30.02,WNW,282,0.0,0.0,37,0.00,CLR,,0.00,WeatherDisplay:10.37,2013-03-20 08:33:00,
2013-03-20 04:38:00,38.8,15.3,30.01,WNW,283,0.0,0.0,38,0.00,CLR,,0.00,WeatherDisplay:10.37,2013-03-20 08:38:00,
2013-03-20 04:43:00,38.5,16.2,30.01,WNW,283,0.0,0.0,40,0.00,CLR,,0.00,WeatherDisplay:10.37,2013-03-20 08:43:00,
2013-03-20 04:48:00,38.4,16.1,30.01,WNW,283,0.0,0.0,40,0.00,CLR,,0.00,WeatherDisplay:10.37,2013-03-20 08:48:00,
2013-03-20 04:53:00,38.2,16.5,30.01,WNW,283,0.0,0.0,41,0.00,CLR,,0.00,WeatherDisplay:10.37,2013-03-20 08:53:00,
2013-03-20 04:58:00,38.2,17.1,30.01,WNW,283,0.0,0.0,42,0.00,CLR,,0.00,WeatherDisplay:10.37,2013-03-20 08:58:00,
2013-03-20 05:03:00,38.3,17.7,30.01,WNW,283,0.0,0.0,43,0.00,CLR,,0.00,WeatherDisplay:10.37,2013-03-20 09:03:00,
2013-03-20 05:08:00,38.1,17.0,30.01,WNW,283,0.0,0.0,42,0.00,CLR,,0.00,WeatherDisplay:10.37,2013-03-20 09:08:00,
2013-03-20 05:13:00,37.8,16.7,30.01,WNW,283,0.0,0.0,42,0.00,CLR,,0.00,WeatherDisplay:10.37,2013-03-20 09:13:00,
2013-03-20 05:18:00,38.0,18.0,30.01,WNW,283,0.0,0.0,44,0.00,CLR,,0.00,WeatherDisplay:10.37,2013-03-20 09:18:00,
2013-03-20 05:23:00,38.1,17.0,30.01,WNW,283,0.0,0.0,42,0.00,CLR,,0.00,WeatherDisplay:10.37,2013-03-20 09:23:00,
2013-03-20 05:28:00,38.2,17.6,30.02,WNW,282,0.0,0.0,43,0.00,CLR,,0.00,WeatherDisplay:10.37,2013-03-20 09:28:00,
2013-03-20 05:33:00,38.3,16.6,30.02,NNW,330,0.0,0.0,41,0.00,CLR,,0.00,WeatherDisplay:10.37,2013-03-20 09:33:00,
2013-03-20 05:38:00,38.6,16.3,30.02,NNE,12,0.0,0.0,40,0.00,CLR,,0.00,WeatherDisplay:10.37,2013-03-20 09:38:00,
2013-03-20 05:43:00,39.0,16.1,30.02,NNE,14,0.0,0.0,39,0.00,CLR,,0.00,WeatherDisplay:10.37,2013-03-20 09:43:00,
2013-03-20 05:48:00,39.4,15.3,30.02,NNE,14,0.0,0.0,37,0.00,CLR,,0.00,WeatherDisplay:10.37,2013-03-20 09:48:00,
2013-03-20 05:53:00,39.6,14.8,30.03,NNE,14,0.0,0.0,36,0.00,CLR,,0.00,WeatherDisplay:10.37,2013-03-20 09:53:00,
2013-03-20 05:58:00,40.0,15.2,30.03,North,356,0.0,0.0,36,0.00,CLR,,0.00,WeatherDisplay:10.37,2013-03-20 09:58:00,
2013-03-20 06:03:00,40.2,14.0,30.03,NW,309,0.0,0.0,34,0.00,CLR,,0.00,WeatherDisplay:10.37,2013-03-20 10:03:00,
2013-03-20 06:08:00,40.3,14.8,30.03,NW,308,0.0,0.0,35,0.00,CLR,,0.00,WeatherDisplay:10.37,2013-03-20 10:08:00,
2013-03-20 06:13:00,40.3,15.4,30.03,NE,40,0.0,0.0,36,0.00,CLR,,0.00,WeatherDisplay:10.37,2013-03-20 10:13:00,
2013-03-20 06:18:00,40.3,14.8,30.03,NE,38,0.0,0.0,35,0.00,CLR,,0.00,WeatherDisplay:10.37,2013-03-20 10:18:00,
2013-03-20 06:23:00,40.4,14.2,30.03,West,280,0.0,0.0,34,0.00,CLR,,0.00,WeatherDisplay:10.37,2013-03-20 10:23:00,
2013-03-20 06:28:00,40.7,15.1,30.04,West,281,1.1,0.0,35,0.00,CLR,,0.00,WeatherDisplay:10.37,2013-03-20 10:28:00,
2013-03-20 06:33:00,40.7,14.5,30.04,WNW,298,1.1,0.0,34,0.00,CLR,,0.00,WeatherDisplay:10.37,2013-03-20 10:33:00,
2013-03-20 06:38:00,40.6,14.4,30.04,West,270,1.1,1.1,34,0.00,CLR,,0.00,WeatherDisplay:10.37,2013-03-20 10:38:00,
2013-03-20 06:43:00,40.7,14.5,30.04,West,269,0.0,0.0,34,0.00,CLR,,0.00,WeatherDisplay:10.37,2013-03-20 10:43:00,
2013-03-20 06:48:00,40.6,14.4,30.05,West,267,0.0,0.0,34,0.00,CLR,,0.00,WeatherDisplay:10.37,2013-03-20 10:48:00,
2013-03-20 06:53:00,40.5,15.6,30.05,West,266,0.0,0.0,36,0.00,CLR,,0.00,WeatherDisplay:10.37,2013-03-20 10:53:00,
2013-03-20 06:58:00,40.3,15.4,30.05,West,266,0.0,0.0,36,0.00,CLR,,0.00,WeatherDisplay:10.37,2013-03-20 10:58:00,
2013-03-20 07:03:00,40.2,14.7,30.05,West,269,0.0,0.0,35,0.00,CLR,,0.00,WeatherDisplay:10.37,2013-03-20 11:03:00,
2013-03-20 07:08:00,40.1,15.9,30.05,West,270,0.0,0.0,37,0.00,CLR,,0.00,WeatherDisplay:10.37,2013-03-20 11:08:00,
2013-03-20 07:13:00,39.9,16.9,30.05,West,270,0.0,0.0,39,0.00,CLR,,0.00,WeatherDisplay:10.37,2013-03-20 11:13:00,
2013-03-20 07:18:00,39.7,16.1,30.05,West,270,0.0,0.0,38,0.00,CLR,,0.00,WeatherDisplay:10.37,2013-03-20 11:18:00,
2013-03-20 07:23:00,39.6,16.6,30.05,West,270,0.0,0.0,39,0.00,CLR,,0.00,WeatherDisplay:10.37,2013-03-20 11:23:00,
2013-03-20 07:28:00,39.6,17.2,30.06,West,269,0.0,0.0,40,0.00,CLR,,0.00,WeatherDisplay:10.37,2013-03-20 11:28:00,
2013-03-20 07:33:00,39.5,17.1,30.06,West,269,0.0,0.0,40,0.00,CLR,,0.00,WeatherDisplay:10.37,2013-03-20 11:33:00,
2013-03-20 07:38:00,39.3,17.5,30.06,West,269,0.0,0.0,41,0.00,CLR,,0.00,WeatherDisplay:10.37,2013-03-20 11:38:00,
2013-03-20 07:43:00,39.3,18.1,30.07,West,269,0.0,0.0,42,0.00,CLR,,0.00,WeatherDisplay:10.37,2013-03-20 11:43:00,
2013-03-20 07:48:00,39.4,16.5,30.07,West,269,0.0,0.0,39,0.00,CLR,,0.00,WeatherDisplay:10.37,2013-03-20 11:48:00,
2013-03-20 07:53:00,39.7,16.7,30.08,West,269,0.0,0.0,39,0.00,CLR,,0.00,WeatherDisplay:10.37,2013-03-20 11:53:00,
2013-03-20 07:58:00,40.1,16.5,30.08,West,269,0.0,0.0,38,0.00,CLR,,0.00,WeatherDisplay:10.37,2013-03-20 11:58:00,
2013-03-20 08:03:00,40.4,16.1,30.08,NNE,13,0.0,0.0,37,0.00,CLR,,0.00,WeatherDisplay:10.37,2013-03-20 12:03:00,
2013-03-20 08:08:00,40.8,17.7,30.07,NNW,343,1.1,1.1,39,0.00,CLR,,0.00,WeatherDisplay:10.37,2013-03-20 12:08:00,
2013-03-20 08:13:00,40.9,17.2,30.08,NNW,343,1.1,0.0,38,0.00,CLR,,0.00,WeatherDisplay:10.37,2013-03-20 12:13:00,
2013-03-20 08:18:00,41.2,16.9,30.08,NNW,342,1.0,1.0,37,0.00,CLR,,0.00,WeatherDisplay:10.37,2013-03-20 12:18:00,
2013-03-20 08:23:00,41.7,17.3,30.07,NNW,342,0.0,0.0,37,0.00,CLR,,0.00,WeatherDisplay:10.37,2013-03-20 12:23:00,
2013-03-20 08:28:00,42.2,17.8,30.08,NNW,342,0.0,0.0,37,0.00,CLR,,0.00,WeatherDisplay:10.37,2013-03-20 12:28:00,
2013-03-20 08:33:00,42.7,16.9,30.09,WSW,246,0.0,0.0,35,0.00,CLR,,0.00,WeatherDisplay:10.37,2013-03-20 12:33:00,
2013-03-20 08:38:00,43.0,16.5,30.08,NNE,20,0.0,0.0,34,0.00,CLR,,0.00,WeatherDisplay:10.37,2013-03-20 12:38:00,
2013-03-20 08:43:00,43.3,16.8,30.09,WSW,251,1.1,1.1,34,0.00,CLR,,0.00,WeatherDisplay:10.37,2013-03-20 12:43:00,
2013-03-20 08:48:00,43.6,16.3,30.09,NE,44,1.1,1.1,33,0.00,CLR,,0.00,WeatherDisplay:10.37,2013-03-20 12:48:00,
2013-03-20 08:54:00,43.8,15.1,30.09,SW,214,1.1,1.1,31,0.00,CLR,,0.00,WeatherDisplay:10.37,2013-03-20 12:54:00,
2013-03-20 08:59:00,44.0,16.0,30.09,NE,44,1.1,0.0,32,0.00,CLR,,0.00,WeatherDisplay:10.37,2013-03-20 12:59:00,
2013-03-20 09:04:00,44.3,16.3,30.11,WNW,289,0.0,0.0,32,0.00,CLR,,0.00,WeatherDisplay:10.37,2013-03-20 13:04:00,
2013-03-20 09:09:00,44.6,16.5,30.09,WNW,294,0.0,0.0,32,0.00,CLR,,0.00,WeatherDisplay:10.37,2013-03-20 13:09:00,
2013-03-20 09:14:00,44.7,15.9,30.10,North,356,2.3,2.3,31,0.00,CLR,,0.00,WeatherDisplay:10.37,2013-03-20 13:14:00,
2013-03-20 09:19:00,44.8,14.4,30.10,NNW,332,2.3,2.3,29,0.00,CLR,,0.00,WeatherDisplay:10.37,2013-03-20 13:19:00,
2013-03-20 09:24:00,45.1,15.5,30.11,NNE,16,0.0,0.0,30,0.00,CLR,,0.00,WeatherDisplay:10.37,2013-03-20 13:24:00,
2013-03-20 09:29:00,45.4,16.5,30.11,NE,52,1.1,0.0,31,0.00,CLR,,0.00,WeatherDisplay:10.37,2013-03-20 13:29:00,
2013-03-20 09:34:00,45.8,16.1,30.10,NE,43,0.0,0.0,30,0.00,CLR,,0.00,WeatherDisplay:10.37,2013-03-20 13:34:00,
2013-03-20 09:39:00,45.9,15.4,30.10,WNW,301,0.0,0.0,29,0.00,CLR,,0.00,WeatherDisplay:10.37,2013-03-20 13:39:00,
2013-03-20 09:44:00,46.0,15.5,30.10,North,354,3.5,3.5,29,0.00,CLR,,0.00,WeatherDisplay:10.37,2013-03-20 13:44:00,
2013-03-20 09:49:00,46.0,13.8,30.11,North,353,2.3,2.3,27,0.00,CLR,,0.00,WeatherDisplay:10.37,2013-03-20 13:49:00,
2013-03-20 09:54:00,46.2,14.8,30.11,SW,232,2.3,2.3,28,0.00,CLR,,0.00,WeatherDisplay:10.37,2013-03-20 13:54:00,
2013-03-20 09:59:00,46.5,15.9,30.11,ENE,76,1.0,1.0,29,0.00,CLR,,0.00,WeatherDisplay:10.37,2013-03-20 13:59:00,
2013-03-20 10:04:00,46.6,13.5,30.11,NNW,345,3.5,3.5,26,0.00,CLR,,0.00,WeatherDisplay:10.37,2013-03-20 14:04:00,
2013-03-20 10:09:00,46.4,15.0,30.11,North,7,1.1,1.1,28,0.00,CLR,,0.00,WeatherDisplay:10.37,2013-03-20 14:09:00,
2013-03-20 10:14:00,46.8,14.5,30.10,North,359,2.3,2.3,27,0.00,CLR,,0.00,WeatherDisplay:10.37,2013-03-20 14:14:00,
2013-03-20 10:19:00,47.0,16.3,30.10,North,4,1.1,1.1,29,0.00,CLR,,0.00,WeatherDisplay:10.37,2013-03-20 14:19:00,
2013-03-20 10:24:00,47.2,14.9,30.11,West,280,2.3,2.3,27,0.00,CLR,,0.00,WeatherDisplay:10.37,2013-03-20 14:24:00,
2013-03-20 10:29:00,47.5,15.1,30.11,NW,322,1.1,1.1,27,0.00,CLR,,0.00,WeatherDisplay:10.37,2013-03-20 14:29:00,
2013-03-20 10:34:00,47.5,14.3,30.11,West,276,3.5,3.5,26,0.00,CLR,,0.00,WeatherDisplay:10.37,2013-03-20 14:34:00,
2013-03-20 10:39:00,47.3,15.0,30.11,North,1,2.3,2.3,27,0.00,CLR,,0.00,WeatherDisplay:10.37,2013-03-20 14:39:00,
2013-03-20 10:44:00,47.5,14.3,30.11,NW,314,2.3,2.3,26,0.00,CLR,,0.00,WeatherDisplay:10.37,2013-03-20 14:44:00,
2013-03-20 10:49:00,47.4,15.9,30.11,North,359,1.1,1.1,28,0.00,CLR,,0.00,WeatherDisplay:10.37,2013-03-20 14:49:00,
2013-03-20 10:54:00,47.7,15.3,30.10,ENE,78,2.3,2.3,27,0.00,CLR,,0.00,WeatherDisplay:10.37,2013-03-20 14:54:00,
2013-03-20 10:59:00,48.1,15.6,30.10,North,349,1.1,0.0,27,0.00,CLR,,0.00,WeatherDisplay:10.37,2013-03-20 14:59:00,
2013-03-20 11:04:00,48.5,14.2,30.10,East,95,2.3,2.3,25,0.00,CLR,,0.00,WeatherDisplay:10.37,2013-03-20 15:04:00,
2013-03-20 11:09:00,49.1,15.6,30.10,NE,35,1.1,1.1,26,0.00,CLR,,0.00,WeatherDisplay:10.37,2013-03-20 15:09:00,
2013-03-20 11:15:00,49.6,16.1,30.10,ESE,117,3.5,3.5,26,0.00,CLR,,0.00,WeatherDisplay:10.37,2013-03-20 15:15:00,
2013-03-20 11:20:00,49.4,15.9,30.10,NNW,344,0.0,0.0,26,0.00,CLR,,0.00,WeatherDisplay:10.37,2013-03-20 15:20:00,
2013-03-20 11:25:00,49.5,16.0,30.10,SW,233,1.1,1.1,26,0.00,CLR,,0.00,WeatherDisplay:10.37,2013-03-20 15:25:00,
2013-03-20 11:30:00,49.7,16.2,30.09,NNW,335,3.5,3.5,26,0.00,CLR,,0.00,WeatherDisplay:10.37,2013-03-20 15:30:00,
2013-03-20 11:35:00,49.5,15.1,30.09,NNE,12,2.0,2.0,25,0.00,CLR,,0.00,WeatherDisplay:10.37,2013-03-20 15:35:00,
2013-03-20 11:40:00,49.6,15.2,30.09,WNW,290,2.3,2.3,25,0.00,CLR,,0.00,WeatherDisplay:10.37,2013-03-20 15:40:00,
2013-03-20 11:45:00,49.7,15.2,30.09,NNW,329,2.3,2.3,25,0.00,CLR,,0.00,WeatherDisplay:10.37,2013-03-20 15:45:00,
2013-03-20 11:50:00,49.9,15.4,30.09,NW,309,0.0,0.0,25,0.00,CLR,,0.00,WeatherDisplay:10.37,2013-03-20 15:50:00,
2013-03-20 11:55:00,50.3,14.8,30.09,NNE,25,2.0,2.0,24,0.00,CLR,,0.00,WeatherDisplay:10.37,2013-03-20 15:55:00,
2013-03-20 12:00:00,50.2,13.8,30.08,SE,142,1.1,1.1,23,0.00,CLR,,0.00,WeatherDisplay:10.37,2013-03-20 16:00:00,
2013-03-20 12:05:00,50.3,14.8,30.08,WSW,243,0.0,0.0,24,0.00,CLR,,0.00,WeatherDisplay:10.37,2013-03-20 16:05:00,
2013-03-20 12:10:00,50.9,15.3,30.08,NNW,333,0.0,0.0,24,0.00,CLR,,0.00,WeatherDisplay:10.37,2013-03-20 16:10:00,
2013-03-20 12:15:00,51.0,13.4,30.08,NNE,27,2.3,2.3,22,0.00,CLR,,0.00,WeatherDisplay:10.37,2013-03-20 16:15:00,
2013-03-20 12:20:00,51.5,16.8,30.07,SSE,152,1.1,1.1,25,0.00,CLR,,0.00,WeatherDisplay:10.37,2013-03-20 16:20:00,
2013-03-20 12:25:00,52.1,14.4,30.07,North,357,4.0,4.0,22,0.00,CLR,,0.00,WeatherDisplay:10.37,2013-03-20 16:25:00,
2013-03-20 12:30:00,51.7,16.0,30.07,NE,44,2.3,2.3,24,0.00,CLR,,0.00,WeatherDisplay:10.37,2013-03-20 16:30:00,
2013-03-20 12:35:00,52.3,17.5,30.07,SSE,147,2.3,2.3,25,0.00,CLR,,0.00,WeatherDisplay:10.37,2013-03-20 16:35:00,
2013-03-20 12:40:00,52.4,15.6,30.07,ESE,120,2.0,2.0,23,0.00,CLR,,0.00,WeatherDisplay:10.37,2013-03-20 16:40:00,
2013-03-20 12:45:00,52.4,15.6,30.06,SSW,195,2.3,2.3,23,0.00,CLR,,0.00,WeatherDisplay:10.37,2013-03-20 16:45:00,
2013-03-20 12:50:00,52.7,15.9,30.06,NNE,27,1.1,1.1,23,0.00,CLR,,0.00,WeatherDisplay:10.37,2013-03-20 16:50:00,
2013-03-20 12:55:00,53.0,16.1,30.06,WNW,283,3.5,3.5,23,0.00,CLR,,0.00,WeatherDisplay:10.37,2013-03-20 16:55:00,
2013-03-20 13:00:00,52.7,17.8,30.06,SSW,212,1.1,1.1,25,0.00,CLR,,0.00,WeatherDisplay:10.37,2013-03-20 17:00:00,
2013-03-20 13:05:00,53.2,17.3,30.05,SW,221,2.3,2.3,24,0.00,CLR,,0.00,WeatherDisplay:10.37,2013-03-20 17:05:00,
2013-03-20 13:10:00,53.4,16.5,30.05,SSE,149,3.5,3.5,23,0.00,CLR,,0.00,WeatherDisplay:10.37,2013-03-20 17:10:00,
2013-03-20 13:15:00,53.8,14.7,30.05,SSW,210,3.5,3.5,21,0.00,CLR,,0.00,WeatherDisplay:10.37,2013-03-20 17:15:00,
2013-03-20 13:20:00,53.6,15.6,30.04,WSW,250,4.0,4.0,22,0.00,CLR,,0.00,WeatherDisplay:10.37,2013-03-20 17:20:00,
2013-03-20 13:25:00,53.6,15.6,30.04,WNW,302,2.3,2.3,22,0.00,CLR,,0.00,WeatherDisplay:10.37,2013-03-20 17:25:00,
2013-03-20 13:30:00,53.9,15.9,30.03,SSE,166,3.5,3.5,22,0.00,CLR,,0.00,WeatherDisplay:10.37,2013-03-20 17:30:00,
2013-03-20 13:35:00,54.6,18.5,30.03,West,264,2.3,2.3,24,0.00,CLR,,0.00,WeatherDisplay:10.37,2013-03-20 17:35:00,
2013-03-20 13:40:00,54.9,18.7,30.03,SSW,206,2.3,2.5,24,0.00,CLR,,0.00,WeatherDisplay:10.37,2013-03-20 17:40:00,
2013-03-20 13:45:00,55.1,15.8,30.02,SSE,156,5.8,5.8,21,0.00,CLR,,0.00,WeatherDisplay:10.37,2013-03-20 17:45:00,
2013-03-20 13:50:00,55.0,15.7,30.01,NW,305,3.5,3.5,21,0.00,CLR,,0.00,WeatherDisplay:10.37,2013-03-20 17:50:00,
2013-03-20 13:55:00,54.4,17.3,30.00,NNW,344,2.3,2.3,23,0.00,CLR,,0.00,WeatherDisplay:10.37,2013-03-20 17:55:00,
2013-03-20 14:00:00,54.6,15.4,30.00,North,356,4.6,4.6,21,0.00,CLR,,0.00,WeatherDisplay:10.37,2013-03-20 18:00:00,
2013-03-20 14:05:00,55.1,16.9,30.00,WSW,249,3.5,3.5,22,0.00,CLR,,0.00,WeatherDisplay:10.37,2013-03-20 18:05:00,
2013-03-20 14:10:00,55.7,16.3,29.99,SE,141,3.5,3.5,21,0.00,CLR,,0.00,WeatherDisplay:10.37,2013-03-20 18:10:00,
2013-03-20 14:15:00,56.0,14.3,29.99,West,269,4.6,4.6,19,0.00,CLR,,0.00,WeatherDisplay:10.37,2013-03-20 18:15:00,
2013-03-20 14:20:00,55.7,15.2,29.98,NW,309,4.6,4.6,20,0.00,CLR,,0.00,WeatherDisplay:10.37,2013-03-20 18:20:00,
2013-03-20 14:25:00,55.4,14.9,29.98,South,186,5.8,5.8,20,0.00,CLR,,0.00,WeatherDisplay:10.37,2013-03-20 18:25:00,
2013-03-20 14:30:00,55.6,17.3,29.97,WSW,257,6.0,6.0,22,0.00,CLR,,0.00,WeatherDisplay:10.37,2013-03-20 18:30:00,
2013-03-20 14:35:00,55.3,17.0,29.97,South,190,3.5,3.5,22,0.00,CLR,,0.00,WeatherDisplay:10.37,2013-03-20 18:35:00,
2013-03-20 14:40:00,55.4,14.9,29.97,SSW,197,4.6,4.6,20,0.00,CLR,,0.00,WeatherDisplay:10.37,2013-03-20 18:40:00,
2013-03-20 14:45:00,56.1,18.8,29.96,NW,326,2.3,2.3,23,0.00,CLR,,0.00,WeatherDisplay:10.37,2013-03-20 18:45:00,
2013-03-20 14:50:00,56.2,14.4,29.96,SW,231,3.5,3.5,19,0.00,CLR,,0.00,WeatherDisplay:10.37,2013-03-20 18:50:00,
2013-03-20 14:55:00,56.5,18.1,29.95,WNW,288,2.3,2.3,22,0.00,CLR,,0.00,WeatherDisplay:10.37,2013-03-20 18:55:00,
2013-03-20 15:00:00,56.7,17.1,29.95,WSW,238,6.9,6.9,21,0.00,CLR,,0.00,WeatherDisplay:10.37,2013-03-20 19:00:00,
2013-03-20 15:05:00,56.9,17.3,29.95,SW,219,4.6,4.6,21,0.00,CLR,,0.00,WeatherDisplay:10.37,2013-03-20 19:05:00,
2013-03-20 15:10:00,56.4,15.8,29.95,SSE,152,3.5,3.5,20,0.00,CLR,,0.00,WeatherDisplay:10.37,2013-03-20 19:10:00,
2013-03-20 15:15:00,56.2,15.6,29.94,SW,215,4.6,4.6,20,0.00,CLR,,0.00,WeatherDisplay:10.37,2013-03-20 19:15:00,
2013-03-20 15:20:00,56.2,16.7,29.94,SW,226,4.6,4.6,21,0.00,CLR,,0.00,WeatherDisplay:10.37,2013-03-20 19:20:00,
2013-03-20 15:25:00,56.1,17.7,29.93,NW,311,2.3,2.3,22,0.00,CLR,,0.00,WeatherDisplay:10.37,2013-03-20 19:25:00,
2013-03-20 15:30:00,56.3,17.9,29.93,SW,217,4.6,4.6,22,0.00,CLR,,0.00,WeatherDisplay:10.37,2013-03-20 19:30:00,
2013-03-20 15:35:00,56.4,16.9,29.93,WSW,243,3.5,3.5,21,0.00,CLR,,0.00,WeatherDisplay:10.37,2013-03-20 19:35:00,
2013-03-20 15:40:00,56.2,18.8,29.92,SW,227,2.3,2.3,23,0.00,CLR,,0.00,WeatherDisplay:10.37,2013-03-20 19:40:00,
2013-03-20 15:45:00,56.7,18.2,29.92,SW,225,1.1,1.1,22,0.00,CLR,,0.00,WeatherDisplay:10.37,2013-03-20 19:45:00,
2013-03-20 15:50:00,56.5,18.1,29.92,WNW,295,2.3,2.3,22,0.00,CLR,,0.00,WeatherDisplay:10.37,2013-03-20 19:50:00,
2013-03-20 15:55:00,56.3,16.8,29.91,West,271,3.5,3.5,21,0.00,CLR,,0.00,WeatherDisplay:10.37,2013-03-20 19:55:00,
2013-03-20 16:00:00,55.8,16.4,29.90,WSW,239,3.5,3.5,21,0.00,CLR,,0.00,WeatherDisplay:10.37,2013-03-20 20:00:00,
2013-03-20 16:06:00,56.0,18.7,29.91,West,260,4.0,4.0,23,0.00,CLR,,0.00,WeatherDisplay:10.37,2013-03-20 20:06:00,
2013-03-20 16:11:00,56.4,16.9,29.90,SSW,209,1.1,1.1,21,0.00,CLR,,0.00,WeatherDisplay:10.37,2013-03-20 20:11:00,
2013-03-20 16:16:00,57.1,19.6,29.90,South,181,3.5,3.5,23,0.00,CLR,,0.00,WeatherDisplay:10.37,2013-03-20 20:16:00,
2013-03-20 16:21:00,57.4,17.7,29.89,SW,232,5.8,5.8,21,0.00,CLR,,0.00,WeatherDisplay:10.37,2013-03-20 20:21:00,
2013-03-20 16:26:00,57.0,19.5,29.89,WSW,248,3.5,3.5,23,0.00,CLR,,0.00,WeatherDisplay:10.37,2013-03-20 20:26:00,
2013-03-20 16:31:00,57.3,18.7,29.89,SW,222,3.5,3.5,22,0.00,CLR,,0.00,WeatherDisplay:10.37,2013-03-20 20:31:00,
2013-03-20 16:36:00,57.4,16.6,29.88,WNW,298,4.6,4.6,20,0.00,CLR,,0.00,WeatherDisplay:10.37,2013-03-20 20:36:00,
2013-03-20 16:41:00,57.4,17.7,29.88,SW,235,3.5,3.5,21,0.00,CLR,,0.00,WeatherDisplay:10.37,2013-03-20 20:41:00,
2013-03-20 16:46:00,57.2,17.6,29.88,SSE,160,5.8,5.8,21,0.00,CLR,,0.00,WeatherDisplay:10.37,2013-03-20 20:46:00,
2013-03-20 16:51:00,56.9,18.4,29.87,SW,214,3.5,3.5,22,0.00,CLR,,0.00,WeatherDisplay:10.37,2013-03-20 20:51:00,
2013-03-20 16:56:00,57.0,17.4,29.87,WSW,256,5.8,5.8,21,0.00,CLR,,0.00,WeatherDisplay:10.37,2013-03-20 20:56:00,
2013-03-20 17:01:00,56.8,18.3,29.87,West,267,1.1,1.1,22,0.00,CLR,,0.00,WeatherDisplay:10.37,2013-03-20 21:01:00,
2013-03-20 17:06:00,56.5,17.0,29.86,WNW,300,5.8,5.8,21,0.00,CLR,,0.00,WeatherDisplay:10.37,2013-03-20 21:06:00,
2013-03-20 17:12:00,57.1,19.6,29.86,NW,322,3.5,3.5,23,0.00,CLR,,0.00,WeatherDisplay:10.37,2013-03-20 21:12:00,
2013-03-20 17:17:00,57.1,19.6,29.86,SW,215,3.5,3.5,23,0.00,CLR,,0.00,WeatherDisplay:10.37,2013-03-20 21:17:00,
2013-03-20 17:22:00,57.1,18.6,29.86,WSW,245,7.0,7.0,22,0.00,CLR,,0.00,WeatherDisplay:10.37,2013-03-20 21:22:00,
2013-03-20 17:27:00,56.4,16.9,29.86,East,81,3.5,3.5,21,0.00,CLR,,0.00,WeatherDisplay:10.37,2013-03-20 21:27:00,
2013-03-20 17:32:00,56.1,18.8,29.85,North,349,3.5,3.5,23,0.00,CLR,,0.00,WeatherDisplay:10.37,2013-03-20 21:32:00,
2013-03-20 17:37:00,55.7,18.4,29.85,SSE,162,3.5,3.5,23,0.00,CLR,,0.00,WeatherDisplay:10.37,2013-03-20 21:37:00,
2013-03-20 17:42:00,55.4,18.2,29.85,West,264,2.3,2.3,23,0.00,CLR,,0.00,WeatherDisplay:10.37,2013-03-20 21:42:00,
2013-03-20 17:47:00,55.3,17.0,29.85,West,272,2.3,2.3,22,0.00,CLR,,0.00,WeatherDisplay:10.37,2013-03-20 21:47:00,
2013-03-20 17:52:00,55.5,18.2,29.86,SSE,167,3.5,3.5,23,0.00,CLR,,0.00,WeatherDisplay:10.37,2013-03-20 21:52:00,
2013-03-20 17:57:00,55.7,20.4,29.85,SSW,196,1.1,1.1,25,0.00,CLR,,0.00,WeatherDisplay:10.37,2013-03-20 21:57:00,
2013-03-20 18:02:00,55.6,17.3,29.86,WNW,300,5.8,5.8,22,0.00,CLR,,0.00,WeatherDisplay:10.37,2013-03-20 22:02:00,
2013-03-20 18:07:00,55.1,17.9,29.86,West,264,2.3,2.3,23,0.00,CLR,,0.00,WeatherDisplay:10.37,2013-03-20 22:07:00,
2013-03-20 18:12:00,54.8,17.7,29.86,WSW,245,1.1,1.1,23,0.00,CLR,,0.00,WeatherDisplay:10.37,2013-03-20 22:12:00,
2013-03-20 18:17:00,54.8,18.6,29.86,SW,222,2.3,2.3,24,0.00,CLR,,0.00,WeatherDisplay:10.37,2013-03-20 22:17:00,
2013-03-20 18:22:00,54.8,17.7,29.86,SW,233,2.3,2.3,23,0.00,CLR,,0.00,WeatherDisplay:10.37,2013-03-20 22:22:00,
2013-03-20 18:27:00,54.6,17.5,29.86,SW,222,5.8,5.8,23,0.00,CLR,,0.00,WeatherDisplay:10.37,2013-03-20 22:27:00,
2013-03-20 18:32:00,54.5,18.4,29.86,WSW,255,3.5,3.5,24,0.00,CLR,,0.00,WeatherDisplay:10.37,2013-03-20 22:32:00,
2013-03-20 18:38:00,54.3,18.2,29.86,SW,229,1.1,1.1,24,0.00,CLR,,0.00,WeatherDisplay:10.37,2013-03-20 22:38:00,
2013-03-20 18:43:00,54.1,18.1,29.86,WSW,249,3.5,3.5,24,0.00,CLR,,0.00,WeatherDisplay:10.37,2013-03-20 22:43:00,
2013-03-20 18:48:00,53.7,16.7,29.86,West,269,2.3,2.3,23,0.00,CLR,,0.00,WeatherDisplay:10.37,2013-03-20 22:48:00,
2013-03-20 18:53:00,53.4,17.5,29.86,West,270,2.3,2.3,24,0.00,CLR,,0.00,WeatherDisplay:10.37,2013-03-20 22:53:00,
2013-03-20 18:58:00,53.2,17.3,29.86,West,278,2.3,2.3,24,0.00,CLR,,0.00,WeatherDisplay:10.37,2013-03-20 22:58:00,
2013-03-20 19:03:00,52.9,18.0,29.86,WNW,290,1.1,0.0,25,0.00,CLR,,0.00,WeatherDisplay:10.37,2013-03-20 23:03:00,
2013-03-20 19:08:00,52.5,17.6,29.86,WNW,290,0.0,0.0,25,0.00,CLR,,0.00,WeatherDisplay:10.37,2013-03-20 23:08:00,
2013-03-20 19:13:00,52.2,17.4,29.86,SW,233,2.3,2.3,25,0.00,CLR,,0.00,WeatherDisplay:10.37,2013-03-20 23:13:00,
2013-03-20 19:18:00,51.9,18.0,29.86,West,276,1.1,1.1,26,0.00,CLR,,0.00,WeatherDisplay:10.37,2013-03-20 23:18:00,
2013-03-20 19:23:00,51.6,18.7,29.86,WSW,257,2.3,2.3,27,0.00,CLR,,0.00,WeatherDisplay:10.37,2013-03-20 23:23:00,
2013-03-20 19:28:00,51.2,19.2,29.85,WSW,246,1.0,0.0,28,0.00,CLR,,0.00,WeatherDisplay:10.37,2013-03-20 23:28:00,
2013-03-20 19:33:00,50.6,18.6,29.85,WSW,245,0.0,0.0,28,0.00,CLR,,0.00,WeatherDisplay:10.37,2013-03-20 23:33:00,
2013-03-20 19:38:00,49.8,18.8,29.85,WSW,246,0.0,0.0,29,0.00,CLR,,0.00,WeatherDisplay:10.37,2013-03-20 23:38:00,
2013-03-20 19:43:00,48.9,21.7,29.85,WSW,246,0.0,0.0,34,0.00,CLR,,0.00,WeatherDisplay:10.37,2013-03-20 23:43:00,
2013-03-20 19:49:00,48.2,21.1,29.84,WSW,246,0.0,0.0,34,0.00,CLR,,0.00,WeatherDisplay:10.37,2013-03-20 23:49:00,
2013-03-20 19:54:00,47.5,21.8,29.84,WSW,246,0.0,0.0,36,0.00,CLR,,0.00,WeatherDisplay:10.37,2013-03-20 23:54:00,
2013-03-20 19:59:00,46.9,22.0,29.84,WSW,245,0.0,0.0,37,0.00,CLR,,0.00,WeatherDisplay:10.37,2013-03-20 23:59:00,
2013-03-20 20:04:00,46.4,22.1,29.84,WSW,245,0.0,0.0,38,0.00,CLR,,0.00,WeatherDisplay:10.37,2013-03-21 00:04:00,
2013-03-20 20:09:00,45.9,22.9,29.84,WSW,246,0.0,0.0,40,0.00,CLR,,0.00,WeatherDisplay:10.37,2013-03-21 00:09:00,
2013-03-20 20:14:00,45.2,22.9,29.84,WSW,246,0.0,0.0,41,0.00,CLR,,0.00,WeatherDisplay:10.37,2013-03-21 00:14:00,
2013-03-20 20:19:00,44.5,23.9,29.84,WSW,246,0.0,0.0,44,0.00,CLR,,0.00,WeatherDisplay:10.37,2013-03-21 00:19:00,
2013-03-20 20:24:00,43.9,23.9,29.84,WSW,246,0.0,0.0,45,0.00,CLR,,0.00,WeatherDisplay:10.37,2013-03-21 00:24:00,
2013-03-20 20:29:00,43.2,23.8,29.84,WSW,246,0.0,0.0,46,0.00,CLR,,0.00,WeatherDisplay:10.37,2013-03-21 00:29:00,
2013-03-20 20:34:00,42.7,23.8,29.84,WSW,245,0.0,0.0,47,0.00,CLR,,0.00,WeatherDisplay:10.37,2013-03-21 00:34:00,
2013-03-20 20:39:00,42.3,23.5,29.84,WSW,245,0.0,0.0,47,0.00,CLR,,0.00,WeatherDisplay:10.37,2013-03-21 00:39:00,
2013-03-20 20:44:00,41.8,23.0,29.83,WSW,246,0.0,0.0,47,0.00,CLR,,0.00,WeatherDisplay:10.37,2013-03-21 00:44:00,
2013-03-20 20:49:00,41.2,23.9,29.83,WSW,246,0.0,0.0,50,0.00,CLR,,0.00,WeatherDisplay:10.37,2013-03-21 00:49:00,
2013-03-20 20:54:00,40.8,24.5,29.84,WSW,245,0.0,0.0,52,0.00,CLR,,0.00,WeatherDisplay:10.37,2013-03-21 00:54:00,
2013-03-20 20:59:00,40.6,25.2,29.83,WSW,246,0.0,0.0,54,0.00,CLR,,0.00,WeatherDisplay:10.37,2013-03-21 00:59:00,
2013-03-20 21:04:00,40.6,26.1,29.83,WSW,246,0.0,0.0,56,0.00,CLR,,0.00,WeatherDisplay:10.37,2013-03-21 01:04:00,
2013-03-20 21:09:00,40.6,25.7,29.83,WSW,246,0.0,0.0,55,0.00,CLR,,0.00,WeatherDisplay:10.37,2013-03-21 01:09:00,
2013-03-20 21:14:00,40.5,25.1,29.83,WSW,246,0.0,0.0,54,0.00,CLR,,0.00,WeatherDisplay:10.37,2013-03-21 01:14:00,
2013-03-20 21:19:00,40.1,26.5,29.83,WSW,246,0.0,0.0,58,0.00,CLR,,0.00,WeatherDisplay:10.37,2013-03-21 01:19:00,
2013-03-20 21:24:00,39.8,26.6,29.83,WSW,246,0.0,0.0,59,0.00,CLR,,0.00,WeatherDisplay:10.37,2013-03-21 01:24:00,
2013-03-20 21:29:00,39.5,26.3,29.83,WSW,246,0.0,0.0,59,0.00,CLR,,0.00,WeatherDisplay:10.37,2013-03-21 01:29:00,
2013-03-20 21:34:00,39.4,26.2,29.83,WSW,246,0.0,0.0,59,0.00,CLR,,0.00,WeatherDisplay:10.37,2013-03-21 01:34:00,
2013-03-20 21:39:00,39.0,26.3,29.83,WSW,246,0.0,0.0,60,0.00,CLR,,0.00,WeatherDisplay:10.37,2013-03-21 01:39:00,
2013-03-20 21:44:00,38.7,26.4,29.83,WSW,246,0.0,0.0,61,0.00,CLR,,0.00,WeatherDisplay:10.37,2013-03-21 01:44:00,
2013-03-20 21:49:00,38.5,26.2,29.83,WSW,246,0.0,0.0,61,0.00,CLR,,0.00,WeatherDisplay:10.37,2013-03-21 01:49:00,
2013-03-20 21:54:00,38.2,26.3,29.83,WSW,246,0.0,0.0,62,0.00,CLR,,0.00,WeatherDisplay:10.37,2013-03-21 01:54:00,
2013-03-20 21:59:00,38.1,25.8,29.83,WSW,246,0.0,0.0,61,0.00,CLR,,0.00,WeatherDisplay:10.37,2013-03-21 01:59:00,
2013-03-20 22:04:00,37.7,25.5,29.82,WSW,246,0.0,0.0,61,0.00,CLR,,0.00,WeatherDisplay:10.37,2013-03-21 02:04:00,
2013-03-20 22:09:00,37.2,25.4,29.82,WSW,246,0.0,0.0,62,0.00,CLR,,0.00,WeatherDisplay:10.37,2013-03-21 02:09:00,
2013-03-20 22:14:00,36.8,25.8,29.82,WSW,245,0.0,0.0,64,0.00,CLR,,0.00,WeatherDisplay:10.37,2013-03-21 02:14:00,
2013-03-20 22:19:00,36.6,26.3,29.82,WSW,246,0.0,0.0,66,0.00,CLR,,0.00,WeatherDisplay:10.37,2013-03-21 02:19:00,
2013-03-20 22:24:00,36.5,25.8,29.82,WSW,245,0.0,0.0,65,0.00,CLR,,0.00,WeatherDisplay:10.37,2013-03-21 02:24:00,
2013-03-20 22:29:00,36.6,25.6,29.82,WSW,246,0.0,0.0,64,0.00,CLR,,0.00,WeatherDisplay:10.37,2013-03-21 02:29:00,
2013-03-20 22:34:00,36.6,26.3,29.83,WSW,246,0.0,0.0,66,0.00,CLR,,0.00,WeatherDisplay:10.37,2013-03-21 02:34:00,
2013-03-20 22:39:00,36.7,26.8,29.83,WSW,246,0.0,0.0,67,0.00,CLR,,0.00,WeatherDisplay:10.37,2013-03-21 02:39:00,
2013-03-20 22:44:00,36.5,26.6,29.82,WSW,246,0.0,0.0,67,0.00,CLR,,0.00,WeatherDisplay:10.37,2013-03-21 02:44:00,
2013-03-20 22:49:00,36.1,26.6,29.82,WSW,246,0.0,0.0,68,0.00,CLR,,0.00,WeatherDisplay:10.37,2013-03-21 02:49:00,
2013-03-20 22:54:00,35.6,25.7,29.82,WSW,246,0.0,0.0,67,0.00,CLR,,0.00,WeatherDisplay:10.37,2013-03-21 02:54:00,
2013-03-20 22:59:00,35.1,25.9,29.82,WSW,246,0.0,0.0,69,0.00,CLR,,0.00,WeatherDisplay:10.37,2013-03-21 02:59:00,
2013-03-20 23:04:00,35.0,26.5,29.81,WSW,246,0.0,0.0,71,0.00,CLR,,0.00,WeatherDisplay:10.37,2013-03-21 03:04:00,
2013-03-20 23:09:00,35.1,26.6,29.81,WSW,246,0.0,0.0,71,0.00,CLR,,0.00,WeatherDisplay:10.37,2013-03-21 03:09:00,
2013-03-20 23:14:00,34.9,26.1,29.81,WSW,246,0.0,0.0,70,0.00,CLR,,0.00,WeatherDisplay:10.37,2013-03-21 03:14:00,
2013-03-20 23:19:00,34.8,26.4,29.81,WSW,246,0.0,0.0,71,0.00,CLR,,0.00,WeatherDisplay:10.37,2013-03-21 03:19:00,
2013-03-20 23:24:00,34.6,25.8,29.81,WSW,246,0.0,0.0,70,0.00,CLR,,0.00,WeatherDisplay:10.37,2013-03-21 03:24:00,
2013-03-20 23:29:00,34.3,25.9,29.80,WSW,246,0.0,0.0,71,0.00,CLR,,0.00,WeatherDisplay:10.37,2013-03-21 03:29:00,
2013-03-20 23:34:00,34.1,26.0,29.80,WSW,246,0.0,0.0,72,0.00,CLR,,0.00,WeatherDisplay:10.37,2013-03-21 03:34:00,
2013-03-20 23:39:00,34.2,26.8,29.80,WSW,246,0.0,0.0,74,0.00,CLR,,0.00,WeatherDisplay:10.37,2013-03-21 03:39:00,
2013-03-20 23:44:00,34.5,27.1,29.79,WSW,245,0.0,0.0,74,0.00,CLR,,0.00,WeatherDisplay:10.37,2013-03-21 03:44:00,
2013-03-20 23:49:00,34.8,27.0,29.79,WSW,245,0.0,0.0,73,0.00,CLR,,0.00,WeatherDisplay:10.37,2013-03-21 03:49:00,
2013-03-20 23:55:00,35.0,27.9,29.78,WSW,246,0.0,0.0,75,0.00,CLR,,0.00,WeatherDisplay:10.37,2013-03-21 03:55:00,